[[{"header":{"parameterUnit":"m.s-1","parameterCategory":2,"la1":30.2991,"la2":30.254,"lo1":-89.0895,"lo2":-89.0444,"dy":0.0017,"dx":0.0017,"nx":28,"ny":28,"refTime":"2024-02-11T03:00:00:Z","depth":"0","parameterNumber":2,"parameterNumberName":"U-component_of_CURRENTS"},"data":[0,0,0,0,0,0,0,0,0,0,0,0,0,0,0,0,0,0,0,0,0,0,0,0,0,0,0,0,0,0,0,0,0,0,0,0,0,0,0,0,0,0,0,0,0,0,0,0,0,0,0,0,0,0,0,0,0,0,0.2508,0.2508,0,0.2528,0.2528,0.2528,0.2527,0.2527,0.2527,0.2527,0.2524,0.2524,0.2524,0,0,0,0,0,0,0,0,0,0,0,0,0,0.2484,0.2484,0.2508,0.2508,0.2508,0.2528,0.2528,0.2528,0.2527,0.2527,0.2527,0.2527,0.2524,0.2524,0.2524,0,0,0,0,0,0,0,0,0,0,0,0,0,0.2497,0.2484,0.2508,0.2512,0.2512,0.2528,0.2528,0.2528,0.2527,0.2527,0.2527,0.2527,0.2524,0.2524,0.2524,0.2529,0,0,0.2524,0.2524,0,0,0,0,0,0,0,0,0.2496,0.2497,0.2511,0.2511,0.2512,0.2526,0.2519,0.2528,0.2527,0.252,0.2527,0.2527,0.2524,0.2524,0.2526,0.2529,0.2528,0.2524,0.2524,0.2524,0.2524,0,0,0,0,0,0,0,0.2495,0.2497,0.2514,0.2511,0.2512,0.2518,0.2519,0.252,0.2521,0.2521,0.2521,0.2526,0.2524,0.2526,0.2526,0.2528,0.2524,0.2524,0.2524,0.2524,0.2552,0.2553,0,0,0,0,0,0,0.2495,0.2496,0.2513,0.2515,0.2505,0.2518,0.252,0.2521,0.2522,0.2522,0.2526,0.2526,0.2526,0.2526,0.2526,0.2553,0.2524,0.2524,0.2525,0.2551,0.2552,0.2553,0,0,0,0,0,0,0.2495,0.2496,0.2513,0.2507,0.251,0.2519,0.252,0.2521,0.2526,0.2526,0.2526,0.253,0.2526,0.2526,0.2534,0.2552,0.2525,0.2525,0.2551,0.2552,0.2553,0.2594,0,0,0,0,0,0,0.2494,0.2496,0.2498,0.2507,0.251,0.2528,0.252,0.2522,0.253,0.253,0.253,0.2529,0.2526,0.2534,0.2534,0.2552,0.2525,0.255,0.2551,0.2552,0.2592,0.2597,0.2601,0,0,0,0,0,0.2493,0.2497,0.2497,0.25,0.2512,0.2529,0.2531,0.2536,0.2531,0.2538,0.2538,0.253,0.2543,0.2535,0.2535,0.2553,0.2549,0.2551,0.2552,0.259,0.2596,0.26,0,0,0,0,0,0,0.2491,0.2498,0.2498,0.2505,0.2519,0.253,0.2537,0.2539,0.2544,0.2542,0.2537,0.2537,0.2555,0.2546,0.2537,0.2564,0.2545,0.2547,0.2574,0.2579,0.2583,0.2605,0.2525,0,0,0,0,0,0.2491,0.2493,0.2506,0.2512,0.2519,0.2528,0.2535,0.2539,0.2546,0.2548,0.2547,0.2548,0.2561,0.2563,0.2568,0.258,0.2594,0.2591,0.2595,0.2599,0.2617,0.265,0.2659,0.2558,0.2558,0.2558,0,0,0.2491,0.2497,0.2497,0.2512,0.2521,0.2539,0.2532,0.2545,0.2562,0.2547,0.2562,0.2564,0.2568,0.2586,0.2593,0.258,0.2635,0.2601,0.2604,0.262,0.2652,0.2662,0.2671,0.2559,0.2559,0.2559,0,0,0.25,0.25,0.2508,0.2521,0.2538,0.2546,0.2552,0.2564,0.2571,0.2589,0.2585,0.26,0.2608,0.2619,0.2626,0.2656,0.266,0.2652,0.2689,0.2721,0.273,0.2738,0.2772,0.2783,0.2651,0.2651,0.2651,0,0.2505,0.2514,0.2515,0.2532,0.2547,0.2551,0.2573,0.2584,0.2596,0.2613,0.26,0.2636,0.263,0.2669,0.2679,0.2668,0.2687,0.2669,0.2728,0.2736,0.2744,0.2777,0.2788,0.2653,0.2653,0.2653,0.2652,0,0.2522,0.2532,0.2541,0.2562,0.2579,0.2595,0.2615,0.2632,0.264,0.2655,0.2693,0.2691,0.2718,0.2713,0.2707,0.2757,0.2755,0.2733,0.2717,0.2757,0.2789,0.28,0.2656,0.2655,0.2655,0.2654,0,0,0.2531,0.2549,0.2552,0.2567,0.2595,0.2611,0.2647,0.2686,0.2718,0.273,0.2776,0.2793,0.2797,0.2805,0.2796,0.2817,0.2879,0.28,0.2801,0.284,0.2961,0.3011,0.3027,0.2869,0.2871,0.2872,0.2964,0,0.2549,0.2576,0.2584,0.2619,0.2638,0.2659,0.2694,0.273,0.276,0.2802,0.2818,0.2853,0.283,0.2844,0.2867,0.2881,0.2911,0.2858,0.2913,0.2915,0.2959,0.3043,0.3133,0.3227,0.2974,0.2976,0.2978,0,0.2569,0.2585,0.2614,0.2651,0.2663,0.2684,0.2748,0.2781,0.2844,0.287,0.2916,0.2928,0.2977,0.2937,0.3005,0.2975,0.298,0.2982,0.2984,0.3029,0.2987,0.3146,0.3257,0.3309,0.2995,0.2993,0.2992,0,0.2574,0.2608,0.2629,0.264,0.2683,0.2707,0.2738,0.2803,0.285,0.2916,0.2967,0.3012,0.3056,0.307,0.3095,0.3053,0.3169,0.3104,0.3156,0.3158,0.3247,0.3255,0.3423,0.3154,0.3154,0.3154,0.3154,0,0.2589,0.2608,0.2629,0.264,0.2681,0.2712,0.2773,0.2814,0.2892,0.2959,0.3,0.3075,0.3095,0.3161,0.3145,0.322,0.3217,0.32,0.3201,0.3264,0.3272,0.3327,0.3292,0.3157,0.3156,0.3156,0.3155,0,0.2587,0.2601,0.2624,0.2661,0.268,0.2707,0.2789,0.2829,0.2917,0.3009,0.3037,0.3153,0.3255,0.3283,0.3329,0.3313,0.331,0.3359,0.344,0.3449,0.3521,0.3482,0.3311,0.323,0.3431,0.3433,0.3434,0,0.2587,0.2594,0.2626,0.2635,0.2647,0.27,0.2732,0.2825,0.2882,0.3059,0.3102,0.3252,0.3365,0.3492,0.3519,0.3554,0.3409,0.3609,0.3537,0.3585,0.3542,0.3229,0.315,0.3669,0.3673,0.3675,0.3678,0,0.2576,0.2577,0.2582,0.2605,0.2629,0.2675,0.274,0.2802,0.2921,0.304,0.3209,0.3325,0.3517,0.3651,0.3723,0.3724,0.3536,0.3667,0.3708,0.3758,0.3436,0.3342,0.3538,0.3703,0.3701,0.3699,0.3697,0.3696,0.2552,0.2541,0.2539,0.256,0.2587,0.2632,0.2665,0.2773,0.29,0.3088,0.3238,0.3463,0.3749,0.3904,0.3855,0.3969,0.3697,0.3955,0.391,0.3588,0.35,0.3755,0.3917,0.3916,0.3915,0.3914,0.3913,0,0.2507,0.2492,0.2497,0.251,0.2515,0.2561,0.2644,0.2687,0.2825,0.3102,0.3291,0.3718,0.3952,0.4107,0.4344,0.4292,0.3964,0.421,0.3864,0.3775,0.4082,0.4096,0.4316,0.4316,0.4316,0.4316,0.4316,0.4316,0.2479,0.2442,0.244,0.2429,0.2444,0.2447,0.2483,0.2587,0.2777,0.311,0.341,0.3637,0.4073,0.4502,0.4646,0.4545,0.4226,0.405,0.3883,0.4271,0.4244,0.4218,0.423,0.4474,0.4474,0.3492,0.3486,0.3481]},{"header":{"parameterUnit":"m.s-1","parameterCategory":2,"la1":30.2991,"la2":30.254,"lo1":-89.0895,"lo2":-89.0444,"dy":0.0017,"dx":0.0017,"nx":28,"ny":28,"refTime":"2024-02-11T03:00:00:Z","depth":"0","parameterNumber":3,"parameterNumberName":"V-component_of_CURRENTS"},"data":[0,0,0,0,0,0,0,0,0,0,0,0,0,0,0,0,0,0,0,0,0,0,0,0,0,0,0,0,0,0,0,0,0,0,0,0,0,0,0,0,0,0,0,0,0,0,0,0,0,0,0,0,0,0,0,0,0,0,0.005,0.005,0,0.0027,0.0027,0.0027,-0.0002,-0.0003,-0.0003,-0.0004,-0.0053,-0.0054,-0.0055,0,0,0,0,0,0,0,0,0,0,0,0,0,0.0005,0.0006,0.005,0.005,0.0049,0.0027,0.0027,0.0027,-0.0002,-0.0003,-0.0003,-0.0004,-0.0053,-0.0054,-0.0055,0,0,0,0,0,0,0,0,0,0,0,0,0,0.0006,0.0006,0.005,0.0033,0.0032,0.0028,0.0027,0.0027,-0.0002,-0.0003,-0.0003,-0.0004,-0.0053,-0.0054,-0.0055,-0.0053,0,0,-0.006,-0.0061,0,0,0,0,0,0,0,0,0.0006,0.0008,0.0036,0.0034,0.0032,0.0016,-0.0007,-0.0001,-0.0002,0.0009,-0.0004,-0.0004,-0.0032,-0.0035,-0.0039,-0.0056,-0.0058,-0.006,-0.0061,-0.0062,-0.0062,0,0,0,0,0,0,0,0.0006,0.0009,0.004,0.0036,0.0034,0.0005,0.0005,-0.0006,-0.0009,0.0008,0.0006,0.0006,-0.0033,-0.0037,-0.004,-0.0058,-0.006,-0.0061,-0.0062,-0.0063,-0.0087,-0.0087,0,0,0,0,0,0,0.0016,0.0009,0.0041,0.0039,0.0019,0.0007,0.0007,0.0021,-0.0008,-0.0013,0.0006,0.0005,-0.0035,-0.0039,-0.0042,-0.0039,-0.0062,-0.0063,-0.0064,-0.0087,-0.0087,-0.0087,0,0,0,0,0,0,0.0015,0.0019,0.0041,0.0023,0.0024,0.0009,0.0024,0.0021,0.0016,-0.0009,-0.0015,0.0005,-0.0035,-0.004,-0.0049,-0.0041,-0.0064,-0.0065,-0.0088,-0.0087,-0.0087,-0.0033,0,0,0,0,0,0,0.0014,0.002,0.003,0.0025,0.0026,0.0046,0.0025,0.0021,0.0017,0.0014,-0.0012,-0.0017,-0.0036,-0.0047,-0.0051,-0.0043,-0.0066,-0.0088,-0.0088,-0.0087,-0.0035,-0.0031,-0.0028,0,0,0,0,0,0.0013,0.0034,0.0031,0.0034,0.0042,0.0047,0.0045,0.003,0.0017,0.0022,0.0002,-0.0017,-0.0047,-0.0048,-0.0052,-0.0045,-0.0088,-0.0088,-0.0087,-0.0037,-0.0032,-0.0028,0,0,0,0,0,0,0.0016,0.0033,0.0029,0.0053,0.0052,0.0043,0.0045,0.0034,0.0023,0.0017,-0.001,-0.0016,-0.0022,-0.0041,-0.0041,-0.0052,-0.0072,-0.0073,-0.0033,-0.0028,-0.0024,-0.0006,-0.0067,0,0,0,0,0,0.0024,0.0046,0.0049,0.0067,0.0069,0.0057,0.0055,0.0047,0.0037,0.0031,0.0013,-0.0008,-0.0023,-0.0031,-0.0047,-0.0049,-0.0075,-0.005,-0.0046,-0.0042,-0.0032,-0.0068,-0.0066,-0.0085,-0.0085,-0.0085,0,0,0.0028,0.0041,0.0052,0.0069,0.0066,0.0081,0.0055,0.0059,0.0069,0.0028,0.0033,0.0006,-0.0021,-0.0025,-0.0029,-0.0039,-0.0051,-0.0042,-0.0038,-0.003,-0.0067,-0.0065,-0.0063,-0.0085,-0.0085,-0.0085,0,0,0.0054,0.0062,0.0089,0.0097,0.0102,0.0096,0.01,0.0094,0.0089,0.0091,0.006,0.0039,0.0023,0.0002,-0.001,0.0005,-0.0029,-0.0001,0.0034,-0.0,0.0001,0.0002,-0.003,-0.0032,0.0001,0.0001,0.0001,0,0.0054,0.0098,0.0095,0.0123,0.0134,0.0108,0.0135,0.0127,0.0118,0.012,0.01,0.0067,0.0036,0.003,0.0032,0.0015,-0.0008,0.0021,0.0006,0.0006,0.0006,-0.0027,-0.003,0.0004,0.0003,0.0003,0.0003,0,0.0105,0.0135,0.0151,0.0182,0.019,0.0208,0.0203,0.0204,0.019,0.018,0.017,0.0125,0.0107,0.0088,0.0065,0.0054,0.0037,0.0015,-0.0004,0.0011,-0.0025,-0.0029,0.0008,0.0007,0.0006,0.0005,0,0,0.0117,0.0176,0.0182,0.0214,0.0226,0.0243,0.0257,0.0268,0.0287,0.0253,0.0268,0.022,0.0189,0.0173,0.0132,0.0096,0.0067,0.0063,0.0059,0.0036,-0.0004,-0.0018,-0.0025,0.0045,0.0045,0.0045,-0.003,0,0.0156,0.0233,0.0244,0.0302,0.034,0.0329,0.0351,0.0353,0.0343,0.0349,0.0289,0.0283,0.0224,0.0215,0.017,0.01,0.0059,0.009,-0.002,-0.0023,-0.0033,-0.0029,0.0024,-0.0038,-0.0035,-0.0036,-0.0036,0,0.0204,0.0253,0.0326,0.0387,0.0401,0.0425,0.0461,0.0479,0.047,0.0462,0.0431,0.0385,0.0331,0.0275,0.0158,0.0183,0.0097,0.0032,0.0027,-0.0005,-0.0045,-0.0054,-0.0047,-0.0208,-0.0043,-0.0043,-0.0042,0,0.0236,0.0309,0.0375,0.0396,0.0453,0.048,0.0504,0.0515,0.055,0.0532,0.0549,0.0466,0.0442,0.032,0.0182,0.0171,0.0051,0.0014,-0.0082,-0.0084,-0.007,-0.007,-0.0225,-0.0073,-0.0073,-0.0072,-0.0072,0,0.0282,0.0334,0.0399,0.044,0.0521,0.0534,0.0609,0.0619,0.0643,0.0704,0.0613,0.0638,0.0454,0.0363,0.0215,0.0062,0.0072,-0.0071,-0.0102,-0.005,-0.0048,-0.0212,-0.0338,-0.0075,-0.0075,-0.0074,-0.0074,0,0.0311,0.0353,0.0439,0.0515,0.0546,0.0604,0.0693,0.0748,0.0756,0.0831,0.083,0.0766,0.0655,0.046,0.0269,0.0124,-0.0138,-0.0098,-0.0023,-0.0045,-0.0288,-0.0412,-0.0597,-0.0716,-0.0216,-0.0217,-0.0218,0,0.0334,0.0383,0.0499,0.0563,0.0603,0.0692,0.0763,0.0803,0.0871,0.0927,0.0973,0.0886,0.0876,0.0579,0.0289,0.0023,-0.0159,-0.0118,-0.0139,-0.0293,-0.0456,-0.0516,-0.0608,-0.0103,-0.0103,-0.0102,-0.0102,0,0.0378,0.042,0.0498,0.0635,0.0725,0.0837,0.094,0.1015,0.108,0.1158,0.1257,0.1257,0.0976,0.076,0.0361,0.0146,-0.0243,-0.0121,-0.0298,-0.0395,-0.0454,-0.0583,-0.007,-0.0099,-0.01,-0.01,-0.01,-0.01,0.041,0.0478,0.059,0.072,0.0831,0.0981,0.1105,0.122,0.1371,0.1552,0.1518,0.1646,0.127,0.0747,0.0353,-0.0213,-0.0255,-0.0334,-0.0476,-0.0524,-0.0631,-0.0114,-0.0171,-0.0171,-0.0172,-0.0172,-0.0173,0,0.0458,0.0548,0.067,0.0843,0.0984,0.1033,0.1229,0.1386,0.1604,0.1814,0.1954,0.199,0.1435,0.0864,0.0066,-0.0418,-0.0624,-0.0681,-0.0756,-0.0841,-0.0377,-0.0363,-0.0442,-0.0441,-0.0441,-0.0441,-0.0441,-0.0441,0.0489,0.0623,0.07,0.0948,0.1074,0.1307,0.1443,0.1681,0.1904,0.2293,0.2529,0.2636,0.2401,0.0779,-0.033,-0.0702,-0.1094,-0.1154,-0.1375,-0.1046,-0.1023,-0.1001,-0.1015,-0.1229,-0.123,-0.173,-0.1735,-0.174]}],[{"header":{"parameterUnit":"m.s-1","parameterCategory":2,"la1":30.2991,"la2":30.254,"lo1":-89.0895,"lo2":-89.0444,"dy":0.0017,"dx":0.0017,"nx":28,"ny":28,"refTime":"2024-02-11T03:00:00:Z","depth":"2","parameterNumber":2,"parameterNumberName":"U-component_of_CURRENTS"},"data":[0,0,0,0,0,0,0,0,0,0,0,0,0,0,0,0,0,0,0,0,0,0,0,0,0,0,0,0,0,0,0,0,0,0,0,0,0,0,0,0,0,0,0,0,0,0,0,0,0,0,0,0,0,0,0,0,0,0,0.2453,0.2453,0,0.2472,0.2472,0.2472,0.2472,0.2472,0.2472,0.2472,0.247,0.247,0.247,0,0,0,0,0,0,0,0,0,0,0,0,0,0.2431,0.2431,0.2452,0.2453,0.2453,0.2472,0.2472,0.2472,0.2472,0.2472,0.2472,0.2472,0.247,0.247,0.247,0,0,0,0,0,0,0,0,0,0,0,0,0,0.2442,0.2431,0.2452,0.2457,0.2458,0.2472,0.2472,0.2472,0.2472,0.2472,0.2472,0.2472,0.247,0.247,0.247,0.2473,0,0,0.247,0.247,0,0,0,0,0,0,0,0,0.2442,0.2443,0.2456,0.2457,0.2457,0.2471,0.2463,0.2472,0.2472,0.2465,0.2472,0.2472,0.2469,0.2469,0.2471,0.2473,0.2473,0.247,0.247,0.247,0.247,0,0,0,0,0,0,0,0.2441,0.2442,0.2458,0.2456,0.2457,0.2463,0.2464,0.2465,0.2466,0.2466,0.2466,0.2471,0.2469,0.2471,0.2471,0.2473,0.247,0.247,0.247,0.247,0.2496,0.2497,0,0,0,0,0,0,0.2441,0.2441,0.2458,0.2459,0.2451,0.2464,0.2465,0.2465,0.2467,0.2467,0.2471,0.2471,0.2471,0.2471,0.2471,0.2499,0.247,0.247,0.247,0.2496,0.2497,0.2497,0,0,0,0,0,0,0.2441,0.2442,0.2457,0.2452,0.2455,0.2464,0.2465,0.2466,0.2472,0.2471,0.2471,0.2476,0.2471,0.2471,0.248,0.2498,0.247,0.247,0.2495,0.2496,0.2497,0.2539,0,0,0,0,0,0,0.244,0.2442,0.2444,0.2452,0.2455,0.2473,0.2465,0.2466,0.2476,0.2476,0.2476,0.2475,0.2471,0.248,0.248,0.2497,0.247,0.2494,0.2495,0.2497,0.2537,0.2541,0.2545,0,0,0,0,0,0.2439,0.2443,0.2444,0.2446,0.2457,0.2473,0.2475,0.248,0.2476,0.2484,0.2483,0.2475,0.2488,0.248,0.248,0.2498,0.2493,0.2495,0.2497,0.2535,0.254,0.2545,0,0,0,0,0,0,0.2438,0.2444,0.2445,0.2451,0.2465,0.2474,0.2482,0.2484,0.2489,0.2488,0.2483,0.2483,0.25,0.2491,0.2483,0.2509,0.249,0.2491,0.2519,0.2524,0.2528,0.255,0.247,0,0,0,0,0,0.2438,0.244,0.2452,0.2458,0.2465,0.2473,0.248,0.2485,0.2491,0.2493,0.2492,0.2494,0.2506,0.2508,0.2513,0.2524,0.2538,0.2535,0.254,0.2543,0.2561,0.2593,0.2602,0.2502,0.2502,0.2502,0,0,0.2439,0.2444,0.2444,0.2458,0.2467,0.2484,0.2477,0.2491,0.2507,0.2492,0.2508,0.251,0.2513,0.2531,0.2537,0.2525,0.2579,0.2545,0.2548,0.2564,0.2596,0.2606,0.2615,0.2503,0.2503,0.2503,0,0,0.2448,0.2447,0.2455,0.2467,0.2484,0.2492,0.2498,0.2509,0.2516,0.2535,0.2531,0.2545,0.2553,0.2563,0.257,0.26,0.2604,0.2596,0.2633,0.2664,0.2673,0.2681,0.2715,0.2726,0.2595,0.2595,0.2595,0,0.2453,0.2461,0.2462,0.2479,0.2493,0.2498,0.2518,0.2529,0.2541,0.2559,0.2546,0.2581,0.2575,0.2613,0.2623,0.2611,0.2631,0.2613,0.2671,0.2679,0.2687,0.272,0.2731,0.2597,0.2597,0.2597,0.2597,0,0.247,0.2479,0.2488,0.2508,0.2524,0.2541,0.2559,0.2577,0.2585,0.26,0.2638,0.2636,0.2662,0.2657,0.2651,0.27,0.2699,0.2676,0.2661,0.27,0.2732,0.2743,0.26,0.26,0.2599,0.2598,0,0,0.2479,0.2496,0.2499,0.2513,0.254,0.2556,0.2591,0.263,0.2662,0.2674,0.2719,0.2736,0.274,0.2748,0.2739,0.276,0.2822,0.2744,0.2744,0.2783,0.2903,0.2951,0.2967,0.2812,0.2814,0.2815,0.2906,0,0.2497,0.2523,0.2531,0.2564,0.2583,0.2604,0.2638,0.2673,0.2703,0.2744,0.2761,0.2795,0.2773,0.2787,0.281,0.2824,0.2853,0.2801,0.2855,0.2857,0.29,0.2982,0.2685,0.2745,0.2916,0.2918,0.292,0,0.2516,0.2532,0.256,0.2596,0.2607,0.2629,0.2692,0.2723,0.2786,0.2812,0.2857,0.2869,0.2918,0.2879,0.2947,0.2917,0.2922,0.2924,0.2927,0.2968,0.2927,0.2733,0.2759,0.2938,0.2936,0.2935,0.2934,0,0.2522,0.2555,0.2575,0.2586,0.2627,0.2652,0.2682,0.2746,0.2792,0.2858,0.2908,0.2953,0.2997,0.3011,0.3036,0.2995,0.3109,0.3044,0.3094,0.3097,0.2855,0.2835,0.3095,0.3094,0.3094,0.3094,0.3094,0,0.2536,0.2554,0.2576,0.2586,0.2627,0.2657,0.2718,0.2758,0.2836,0.2901,0.2942,0.3015,0.3036,0.3101,0.3085,0.3158,0.3156,0.3138,0.3139,0.2864,0.2844,0.3011,0.3,0.3097,0.3097,0.3096,0.3095,0,0.2532,0.2547,0.257,0.2607,0.2626,0.2653,0.2735,0.2774,0.2861,0.2952,0.298,0.3094,0.3194,0.3222,0.3267,0.325,0.328,0.3295,0.2989,0.2955,0.3227,0.3217,0.3359,0.3362,0.3364,0.3366,0.3368,0,0.2529,0.2537,0.2572,0.2582,0.2595,0.2648,0.268,0.2772,0.2828,0.3002,0.3044,0.3191,0.3286,0.341,0.3343,0.3351,0.3394,0.3138,0.3014,0.3276,0.3261,0.3247,0.3235,0.269,0.2686,0.2682,0.268,0,0.2513,0.2517,0.2524,0.2552,0.2578,0.2625,0.2689,0.275,0.2867,0.2962,0.3127,0.3226,0.3333,0.3238,0.3271,0.3219,0.3113,0.3081,0.3417,0.2706,0.2662,0.2643,0.2648,0.265,0.2653,0.2655,0.2657,0.2658,0.2485,0.2478,0.2481,0.2506,0.2536,0.2583,0.2616,0.2634,0.2728,0.2778,0.302,0.3031,0.3087,0.298,0.2906,0.2823,0.3037,0.2896,0.2897,0.2903,0.2847,0.2814,0.2819,0.2823,0.2826,0.2829,0.2831,0,0.2414,0.2427,0.2438,0.2457,0.2423,0.2514,0.2597,0.2518,0.2513,0.258,0.2648,0.2489,0.2477,0.2531,0.2353,0.2402,0.2249,0.2331,0.2093,0.2129,0.2159,0.2053,0.182,0.1817,0.1813,0.181,0,0,0.2378,0.2334,0.2338,0.2301,0.2345,0.2259,0.2293,0.219,0.2159,0.2059,0.2051,0.2227,0.2439,0.2051,0.2046,0.1911,0.1972,0.1822,0.264,0.2392,0.2416,0.2512,0.2398,0,0,0,0,0]},{"header":{"parameterUnit":"m.s-1","parameterCategory":2,"la1":30.2991,"la2":30.254,"lo1":-89.0895,"lo2":-89.0444,"dy":0.0017,"dx":0.0017,"nx":28,"ny":28,"refTime":"2024-02-11T03:00:00:Z","depth":"2","parameterNumber":3,"parameterNumberName":"V-component_of_CURRENTS"},"data":[0,0,0,0,0,0,0,0,0,0,0,0,0,0,0,0,0,0,0,0,0,0,0,0,0,0,0,0,0,0,0,0,0,0,0,0,0,0,0,0,0,0,0,0,0,0,0,0,0,0,0,0,0,0,0,0,0,0,0.0074,0.0074,0,0.0052,0.0051,0.0051,0.0022,0.0021,0.0021,0.0021,-0.0029,-0.003,-0.0031,0,0,0,0,0,0,0,0,0,0,0,0,0,0.0029,0.003,0.0074,0.0074,0.0074,0.0052,0.0051,0.0051,0.0022,0.0021,0.0021,0.002,-0.0029,-0.003,-0.0031,0,0,0,0,0,0,0,0,0,0,0,0,0,0.0031,0.003,0.0074,0.0057,0.0056,0.0052,0.0051,0.0051,0.0022,0.0021,0.0021,0.002,-0.0028,-0.003,-0.0031,-0.0028,0,0,-0.0036,-0.0036,0,0,0,0,0,0,0,0,0.0031,0.0032,0.006,0.0058,0.0057,0.004,0.0017,0.0023,0.0022,0.0034,0.0021,0.002,-0.0007,-0.0011,-0.0015,-0.0031,-0.0033,-0.0036,-0.0037,-0.0037,-0.0038,0,0,0,0,0,0,0,0.0031,0.0033,0.0064,0.006,0.0058,0.0029,0.003,0.0018,0.0015,0.0032,0.0031,0.003,-0.0009,-0.0013,-0.0016,-0.0034,-0.0036,-0.0037,-0.0038,-0.0038,-0.0062,-0.0062,0,0,0,0,0,0,0.004,0.0033,0.0065,0.0064,0.0043,0.0031,0.0031,0.0045,0.0016,0.0011,0.003,0.0029,-0.001,-0.0014,-0.0018,-0.0014,-0.0037,-0.0039,-0.0039,-0.0062,-0.0062,-0.0062,0,0,0,0,0,0,0.0039,0.0044,0.0066,0.0047,0.0048,0.0033,0.0048,0.0045,0.004,0.0015,0.001,0.0029,-0.0011,-0.0016,-0.0025,-0.0017,-0.0039,-0.0041,-0.0063,-0.0062,-0.0062,-0.0008,0,0,0,0,0,0,0.0038,0.0044,0.0054,0.0049,0.005,0.0071,0.0049,0.0045,0.0041,0.0038,0.0012,0.0007,-0.0012,-0.0023,-0.0026,-0.0019,-0.0042,-0.0063,-0.0062,-0.0062,-0.001,-0.0006,-0.0002,0,0,0,0,0,0.0037,0.0058,0.0055,0.0058,0.0066,0.0072,0.007,0.0055,0.0041,0.0046,0.0026,0.0008,-0.0023,-0.0023,-0.0028,-0.0021,-0.0063,-0.0063,-0.0062,-0.0012,-0.0007,-0.0003,0,0,0,0,0,0,0.004,0.0057,0.0053,0.0077,0.0076,0.0067,0.007,0.0059,0.0047,0.0041,0.0014,0.0008,0.0002,-0.0017,-0.0016,-0.0028,-0.0047,-0.0048,-0.0008,-0.0003,0.0001,0.0018,-0.0043,0,0,0,0,0,0.0048,0.007,0.0073,0.0091,0.0093,0.0081,0.008,0.0071,0.0061,0.0055,0.0037,0.0016,0.0002,-0.0006,-0.0022,-0.0024,-0.005,-0.0025,-0.0021,-0.0017,-0.0007,-0.0042,-0.004,-0.006,-0.006,-0.006,0,0,0.0052,0.0065,0.0075,0.0093,0.009,0.0105,0.0079,0.0083,0.0093,0.0052,0.0057,0.0031,0.0004,0.0,-0.0005,-0.0014,-0.0026,-0.0017,-0.0013,-0.0005,-0.0042,-0.004,-0.0038,-0.006,-0.006,-0.006,0,0,0.0078,0.0086,0.0113,0.0121,0.0126,0.012,0.0124,0.0118,0.0113,0.0115,0.0085,0.0063,0.0048,0.0027,0.0015,0.003,-0.0004,0.0024,0.006,0.0025,0.0027,0.0028,-0.0005,-0.0007,0.0026,0.0026,0.0026,0,0.0078,0.0122,0.0118,0.0147,0.0158,0.0131,0.0159,0.0152,0.0142,0.0144,0.0124,0.0091,0.0061,0.0055,0.0057,0.004,0.0017,0.0046,0.0031,0.0031,0.0031,-0.0002,-0.0005,0.0029,0.0029,0.0028,0.0028,0,0.0129,0.0159,0.0175,0.0206,0.0214,0.0232,0.0227,0.0229,0.0214,0.0204,0.0194,0.015,0.0131,0.0113,0.009,0.0079,0.0062,0.004,0.0022,0.0037,0.0,-0.0004,0.0033,0.0032,0.0031,0.003,0,0,0.0141,0.02,0.0206,0.0238,0.025,0.0267,0.0281,0.0292,0.0311,0.0277,0.0293,0.0245,0.0214,0.0198,0.0157,0.0122,0.0093,0.0088,0.0085,0.0061,0.0021,0.0006,-0.0001,0.0071,0.007,0.007,-0.0005,0,0.018,0.0256,0.0267,0.0326,0.0364,0.0353,0.0376,0.0378,0.0368,0.0373,0.0314,0.0308,0.0249,0.0239,0.0195,0.0125,0.0085,0.0115,0.0005,0.0002,-0.0009,-0.0005,0.0029,-0.0035,-0.001,-0.0011,-0.0011,0,0.0227,0.0277,0.035,0.0411,0.0424,0.0449,0.0485,0.0504,0.0494,0.0486,0.0455,0.0409,0.0355,0.03,0.0183,0.0208,0.0122,0.0057,0.0052,0.0019,-0.002,-0.0047,-0.0044,-0.0019,-0.0018,-0.0018,-0.0017,0,0.0259,0.0332,0.0398,0.0419,0.0477,0.0504,0.0527,0.0539,0.0574,0.0556,0.0573,0.049,0.0465,0.0345,0.0206,0.0196,0.0075,0.0039,-0.0057,-0.006,-0.0062,-0.0063,-0.0048,-0.0048,-0.0047,-0.0047,-0.0047,0,0.0306,0.0357,0.0423,0.0463,0.0544,0.0557,0.0632,0.0642,0.0667,0.0727,0.0636,0.066,0.0477,0.0386,0.0239,0.0086,0.0096,-0.0047,-0.0078,-0.0043,-0.0041,-0.0051,-0.0051,-0.005,-0.0049,-0.0049,-0.0048,0,0.0335,0.0377,0.0462,0.0538,0.0569,0.0627,0.0716,0.077,0.0779,0.0853,0.0852,0.0787,0.0676,0.0482,0.0291,0.0147,-0.0014,-0.0074,-0.0019,-0.0043,-0.0137,-0.0133,-0.0192,-0.0193,-0.0194,-0.0195,-0.0195,0,0.0359,0.0408,0.0522,0.0585,0.0625,0.0714,0.0784,0.0825,0.0893,0.0948,0.0993,0.0906,0.0892,0.0595,0.0308,0.0042,-0.0005,-0.0116,-0.0139,-0.0126,-0.0151,-0.0145,-0.014,-0.0125,-0.0125,-0.0125,-0.0125,0,0.0405,0.0445,0.0523,0.0657,0.0747,0.0859,0.0961,0.1036,0.1101,0.1175,0.1272,0.1267,0.0986,0.0731,0.0331,0.0146,-0.0075,-0.0125,-0.0124,-0.009,-0.0068,-0.0091,-0.0087,-0.0126,-0.0126,-0.0126,-0.0125,-0.0125,0.0438,0.0505,0.0615,0.0742,0.0852,0.1001,0.1125,0.1232,0.1378,0.1517,0.1477,0.1483,0.1156,0.0673,0.0319,-0.007,-0.0049,-0.0184,-0.0182,-0.018,-0.0154,-0.0135,-0.0201,-0.0201,-0.0201,-0.0202,-0.0202,0,0.0495,0.0575,0.0695,0.0864,0.1012,0.1053,0.1248,0.1396,0.16,0.1677,0.1763,0.1484,0.1146,0.0752,0.0191,-0.0137,-0.0165,-0.0252,-0.0213,-0.021,-0.0207,-0.0183,-0.0237,-0.0239,-0.024,-0.0241,0,0,0.0528,0.0663,0.0737,0.0985,0.1103,0.134,0.1475,0.1673,0.1794,0.1926,0.1903,0.1792,0.1305,0.0887,0.0424,0.0097,0.0024,0.0031,0.01,0.0207,0.0213,-0.0127,-0.0079,0,0,0,0,0]}],[{"header":{"parameterUnit":"m.s-1","parameterCategory":2,"la1":30.2991,"la2":30.254,"lo1":-89.0895,"lo2":-89.0444,"dy":0.0017,"dx":0.0017,"nx":28,"ny":28,"refTime":"2024-02-11T03:00:00:Z","depth":"4","parameterNumber":2,"parameterNumberName":"U-component_of_CURRENTS"},"data":[0,0,0,0,0,0,0,0,0,0,0,0,0,0,0,0,0,0,0,0,0,0,0,0,0,0,0,0,0,0,0,0,0,0,0,0,0,0,0,0,0,0,0,0,0,0,0,0,0,0,0,0,0,0,0,0,0,0,0.1126,0.1127,0,0.1185,0.1186,0.1186,0.1232,0.1232,0.1233,0.1234,0.1302,0.1303,0.1304,0,0,0,0,0,0,0,0,0,0,0,0,0,0.1037,0.1038,0.1126,0.1127,0.1128,0.1185,0.1186,0.1186,0.1232,0.1232,0.1233,0.1234,0.1301,0.1303,0.1304,0,0,0,0,0,0,0,0,0,0,0,0,0,0.1082,0.1039,0.1126,0.1159,0.1162,0.1185,0.1186,0.1186,0.1232,0.1232,0.1233,0.1234,0.1301,0.1303,0.1304,0.1298,0,0,0.131,0.1311,0,0,0,0,0,0,0,0,0.1079,0.1085,0.1153,0.1157,0.1161,0.1203,0.1179,0.1225,0.1231,0.1203,0.1234,0.1235,0.127,0.1275,0.1281,0.1301,0.1304,0.131,0.1312,0.1312,0.1313,0,0,0,0,0,0,0,0.1076,0.1083,0.1148,0.1154,0.1159,0.1165,0.1172,0.1188,0.123,0.1206,0.121,0.1219,0.1272,0.1279,0.1283,0.1305,0.131,0.1312,0.1313,0.1314,0.1419,0.1421,0,0,0,0,0,0,0.1073,0.108,0.1146,0.115,0.1123,0.1166,0.1174,0.1187,0.123,0.1237,0.1218,0.1221,0.1275,0.1281,0.1286,0.137,0.1312,0.1314,0.1315,0.1418,0.142,0.1421,0,0,0,0,0,0,0.107,0.1078,0.1144,0.1117,0.1126,0.1167,0.1181,0.1188,0.1224,0.1239,0.1247,0.125,0.1276,0.1283,0.1332,0.1369,0.1315,0.1317,0.1416,0.1418,0.1421,0.148,0,0,0,0,0,0,0.1068,0.1077,0.1097,0.1117,0.1128,0.1176,0.1181,0.1189,0.1227,0.1232,0.1269,0.1274,0.1278,0.1329,0.1334,0.1371,0.1318,0.1414,0.1417,0.142,0.1476,0.1485,0.1492,0,0,0,0,0,0.1064,0.1083,0.1098,0.1107,0.1151,0.1177,0.1183,0.1213,0.1228,0.1248,0.128,0.1275,0.1352,0.1332,0.1337,0.1375,0.1412,0.1416,0.142,0.1473,0.1483,0.1491,0,0,0,0,0,0,0.1055,0.109,0.1107,0.1137,0.1165,0.1186,0.121,0.1228,0.1267,0.1282,0.1294,0.1302,0.136,0.1358,0.1336,0.1415,0.1382,0.1387,0.1421,0.143,0.1438,0.145,0.132,0,0,0,0,0,0.1062,0.109,0.1118,0.1146,0.1162,0.1191,0.1211,0.1232,0.1263,0.1282,0.131,0.1341,0.1373,0.1395,0.1419,0.1459,0.1468,0.1488,0.1496,0.1503,0.1517,0.1559,0.1572,0.1434,0.1434,0.1434,0,0,0.1065,0.1091,0.1107,0.1147,0.1172,0.1201,0.1206,0.1244,0.128,0.1282,0.1348,0.1371,0.1391,0.1442,0.1467,0.145,0.1547,0.1507,0.1513,0.1523,0.1564,0.1578,0.159,0.1436,0.1436,0.1435,0,0,0.1077,0.1111,0.1135,0.1163,0.1207,0.1226,0.1243,0.1283,0.1316,0.1372,0.1389,0.1437,0.1482,0.1508,0.1523,0.1587,0.1587,0.1598,0.1648,0.1689,0.1701,0.1711,0.1741,0.1754,0.1601,0.1601,0.1601,0,0.1083,0.1119,0.1146,0.1177,0.1206,0.124,0.1272,0.1308,0.1364,0.14,0.1405,0.1499,0.1514,0.1579,0.1608,0.1605,0.1627,0.1609,0.1699,0.171,0.1719,0.1747,0.1761,0.1604,0.1604,0.1604,0.1603,0,0.1107,0.1147,0.1164,0.1217,0.125,0.1285,0.1332,0.1381,0.1426,0.1464,0.155,0.1577,0.1636,0.1648,0.1651,0.1732,0.1725,0.1704,0.1674,0.1737,0.1762,0.1775,0.1609,0.1608,0.1607,0.1606,0,0,0.109,0.1166,0.1176,0.1211,0.1278,0.1304,0.1373,0.1442,0.1502,0.1562,0.1639,0.1701,0.173,0.1751,0.1763,0.1801,0.1886,0.1792,0.1793,0.182,0.1983,0.1864,0.1866,0.1886,0.1888,0.1891,0.1974,0,0.1104,0.1163,0.1202,0.1268,0.1301,0.136,0.1421,0.1493,0.156,0.1643,0.1695,0.1773,0.1764,0.1808,0.1847,0.1884,0.1922,0.1865,0.1921,0.1922,0.1807,0.1877,0.1899,0.1983,0.1986,0.1988,0.1989,0,0.111,0.1154,0.1215,0.1302,0.1324,0.1374,0.1482,0.1545,0.1661,0.1719,0.1805,0.1851,0.1942,0.1912,0.2011,0.1981,0.1996,0.2007,0.201,0.1887,0.1826,0.1908,0.2012,0.201,0.2008,0.2007,0.2005,0,0.1075,0.1162,0.1214,0.1244,0.1344,0.1397,0.1462,0.1576,0.1649,0.1783,0.1854,0.1948,0.2024,0.2059,0.2103,0.2073,0.2193,0.2143,0.2045,0.2037,0.2091,0.2079,0.2204,0.2204,0.2204,0.2204,0.2203,0,0.1061,0.1105,0.121,0.1238,0.1318,0.1395,0.1501,0.1579,0.1709,0.1796,0.19,0.1978,0.2072,0.2146,0.2147,0.2147,0.2233,0.2073,0.2057,0.2113,0.2103,0.2099,0.2086,0.2207,0.2206,0.2205,0.2205,0,0.1004,0.1074,0.1141,0.1257,0.1303,0.1364,0.152,0.1585,0.1725,0.1842,0.1895,0.2047,0.2141,0.2205,0.2279,0.2205,0.2208,0.218,0.2259,0.2243,0.201,0.1999,0.2071,0.2068,0.2065,0.2062,0.206,0,0.0974,0.1003,0.1141,0.119,0.1249,0.136,0.1427,0.1578,0.1643,0.186,0.1892,0.206,0.2137,0.2154,0.2222,0.2227,0.219,0.2171,0.2066,0.2023,0.2,0.1994,0.1987,0.2056,0.2055,0.2054,0.2054,0,0.0906,0.0969,0.1026,0.1136,0.1217,0.13,0.1408,0.1454,0.1619,0.1764,0.1855,0.192,0.2029,0.208,0.2118,0.2105,0.2169,0.214,0.2144,0.2045,0.2005,0.1984,0.1981,0.2044,0.2045,0.2046,0.2047,0,0.0851,0.088,0.0971,0.1064,0.1157,0.1205,0.1284,0.1364,0.1457,0.1673,0.1703,0.187,0.2013,0.202,0.2047,0.2042,0.1989,0.1889,0.1905,0.1917,0.1826,0.175,0.1715,0,0,0,0,0,0.0782,0.0814,0.0892,0.0979,0.1067,0.1124,0.1246,0.1323,0.1484,0.1498,0.1598,0.1684,0.1762,0.1851,0.1812,0.1968,0.1989,0.1912,0.188,0.1989,0.2,0.1907,0,0,0,0,0,0,0.0734,0.0793,0.0853,0.0889,0.0931,0.1007,0.108,0.119,0.1207,0.1381,0.1435,0.1564,0.1666,0.1765,0.1775,0.1797,0.1736,0.2012,0.2007,0.1982,0.1993,0.2002,0.191,0,0,0,0,0]},{"header":{"parameterUnit":"m.s-1","parameterCategory":2,"la1":30.2991,"la2":30.254,"lo1":-89.0895,"lo2":-89.0444,"dy":0.0017,"dx":0.0017,"nx":28,"ny":28,"refTime":"2024-02-11T03:00:00:Z","depth":"4","parameterNumber":3,"parameterNumberName":"V-component_of_CURRENTS"},"data":[0,0,0,0,0,0,0,0,0,0,0,0,0,0,0,0,0,0,0,0,0,0,0,0,0,0,0,0,0,0,0,0,0,0,0,0,0,0,0,0,0,0,0,0,0,0,0,0,0,0,0,0,0,0,0,0,0,0,0.0338,0.0337,0,0.0317,0.0317,0.0316,0.0299,0.0299,0.0299,0.0298,0.0261,0.0261,0.026,0,0,0,0,0,0,0,0,0,0,0,0,0,0.0327,0.0328,0.0338,0.0337,0.0337,0.0317,0.0317,0.0316,0.0299,0.0299,0.0298,0.0298,0.0262,0.0261,0.026,0,0,0,0,0,0,0,0,0,0,0,0,0,0.0322,0.0328,0.0338,0.0326,0.0325,0.0317,0.0317,0.0316,0.0299,0.0299,0.0298,0.0298,0.0262,0.0261,0.026,0.0258,0,0,0.0256,0.0255,0,0,0,0,0,0,0,0,0.0322,0.0322,0.0328,0.0327,0.0325,0.031,0.0299,0.0296,0.0299,0.0309,0.0298,0.0298,0.0276,0.0274,0.0271,0.0256,0.0255,0.0256,0.0255,0.0254,0.0254,0,0,0,0,0,0,0,0.0323,0.0323,0.0329,0.0328,0.0326,0.031,0.0309,0.0299,0.0294,0.0308,0.0307,0.0304,0.0275,0.0272,0.027,0.0254,0.0256,0.0255,0.0254,0.0253,0.0227,0.0227,0,0,0,0,0,0,0.0327,0.0323,0.033,0.0329,0.0323,0.031,0.0309,0.0315,0.0295,0.0291,0.0305,0.0304,0.0274,0.0271,0.0269,0.0269,0.0255,0.0253,0.0253,0.0227,0.0227,0.0227,0,0,0,0,0,0,0.0327,0.0329,0.0331,0.0325,0.0324,0.0311,0.0318,0.0315,0.0314,0.0292,0.0289,0.0306,0.0274,0.027,0.0263,0.0268,0.0253,0.0252,0.0227,0.0227,0.0227,0.0268,0,0,0,0,0,0,0.0327,0.0329,0.0336,0.0326,0.0325,0.0333,0.0318,0.0315,0.0313,0.0311,0.0293,0.0289,0.0274,0.0265,0.0262,0.0266,0.0251,0.0227,0.0227,0.0227,0.0267,0.027,0.0272,0,0,0,0,0,0.0327,0.0342,0.0337,0.0337,0.0335,0.0333,0.0332,0.0321,0.0313,0.0318,0.0303,0.0289,0.0263,0.0265,0.0261,0.0264,0.0227,0.0227,0.0227,0.0266,0.0269,0.0272,0,0,0,0,0,0,0.0342,0.0341,0.0335,0.0349,0.0343,0.0331,0.0334,0.0325,0.0317,0.0316,0.0294,0.0289,0.0283,0.0268,0.027,0.0255,0.0241,0.024,0.0272,0.0275,0.0277,0.0292,0.025,0,0,0,0,0,0.0348,0.0359,0.0351,0.0362,0.0361,0.0348,0.0346,0.0339,0.0329,0.0326,0.0311,0.0294,0.028,0.0274,0.026,0.0255,0.023,0.0253,0.0255,0.0258,0.0267,0.0228,0.0228,0.0227,0.0227,0.0227,0,0,0.0356,0.0357,0.0363,0.0366,0.036,0.0367,0.0346,0.0348,0.0355,0.0323,0.0327,0.0305,0.0281,0.0275,0.0271,0.0263,0.0243,0.0258,0.026,0.0268,0.0228,0.0229,0.0229,0.0227,0.0227,0.0227,0,0,0.0379,0.0379,0.0396,0.0395,0.0392,0.0384,0.0387,0.0377,0.0373,0.0371,0.0348,0.033,0.0313,0.0295,0.0283,0.0292,0.0259,0.0285,0.0311,0.0274,0.0274,0.0273,0.0237,0.0234,0.0286,0.0286,0.0286,0,0.0388,0.041,0.0399,0.0414,0.042,0.0395,0.0413,0.0406,0.0394,0.0394,0.0379,0.0345,0.0322,0.0311,0.0313,0.0298,0.0273,0.0303,0.0278,0.0277,0.0276,0.0239,0.0234,0.0288,0.0288,0.0287,0.0287,0,0.0421,0.0439,0.0449,0.0461,0.0464,0.0476,0.0465,0.0465,0.0452,0.0441,0.0427,0.0389,0.037,0.0354,0.0337,0.032,0.0303,0.0287,0.0272,0.0279,0.0239,0.0233,0.0291,0.029,0.0289,0.0289,0,0,0.0441,0.0469,0.0473,0.0492,0.0493,0.0502,0.0511,0.0514,0.0524,0.0493,0.0496,0.0458,0.0431,0.0416,0.0382,0.0348,0.0312,0.0319,0.0316,0.0289,0.023,0.0214,0.0206,0.0291,0.029,0.029,0.0204,0,0.0471,0.0517,0.0519,0.0559,0.0581,0.0568,0.0582,0.0579,0.0565,0.056,0.0509,0.0498,0.0456,0.0445,0.0403,0.0339,0.0299,0.0337,0.0224,0.0221,0.021,0.02,0.0288,0.02,0.0198,0.0197,0.0197,0,0.0504,0.0533,0.0582,0.0619,0.0628,0.0645,0.0664,0.0676,0.0656,0.0644,0.0612,0.0571,0.052,0.0479,0.0368,0.0395,0.032,0.0262,0.0256,0.0226,0.0195,0.0192,0.0186,0.0187,0.0188,0.0188,0.0189,0,0.0531,0.0577,0.0623,0.0635,0.0668,0.0688,0.0704,0.0703,0.0725,0.0698,0.0699,0.0626,0.0596,0.0491,0.037,0.0368,0.0241,0.0219,0.0132,0.013,0.0152,0.0154,0.0137,0.0137,0.0138,0.0138,0.0138,0,0.0564,0.0602,0.0642,0.0669,0.0729,0.0731,0.0786,0.0787,0.0793,0.0823,0.0748,0.0741,0.0599,0.0507,0.0386,0.0244,0.0249,0.0137,0.0107,0.0171,0.0175,0.0148,0.015,0.0135,0.0135,0.0136,0.0136,0,0.0589,0.0614,0.0674,0.0723,0.0748,0.079,0.0855,0.0888,0.0884,0.0916,0.0911,0.083,0.0709,0.0554,0.0383,0.0277,0.0133,0.0081,0.0164,0.014,0.0042,0.0048,-0.0027,-0.0028,-0.0029,-0.003,-0.0031,0,0.0607,0.0642,0.0722,0.0765,0.0794,0.0861,0.0911,0.0936,0.0973,0.0972,0.0985,0.0884,0.0809,0.056,0.0386,0.0144,0.0108,0.0029,0.003,0.0047,0.0025,0.0032,0.0039,-0.0032,-0.0033,-0.0033,-0.0033,0,0.0646,0.0675,0.0726,0.0818,0.0883,0.0964,0.1032,0.1063,0.1091,0.1084,0.105,0.0916,0.0776,0.057,0.0381,0.0207,0.0076,0.0017,0.0018,0.0018,0.0039,0.002,0.0028,-0.0037,-0.0036,-0.0036,-0.0036,0,0.0678,0.0722,0.0792,0.0869,0.0957,0.1041,0.1075,0.1113,0.1148,0.1131,0.112,0.096,0.0869,0.0603,0.0429,0.0253,0.0203,0.0142,0.0135,0.0137,0.0203,0.0255,0.0221,0,0,0,0,0,0.0706,0.076,0.0837,0.0932,0.1014,0.1074,0.1146,0.1167,0.1186,0.1173,0.1149,0.1016,0.0755,0.0641,0.0464,0.0394,0.0164,0.0177,0.0089,-0.0058,-0.0053,-0.0005,0,0,0,0,0,0,0.073,0.0807,0.0844,0.0966,0.1037,0.1145,0.1197,0.121,0.1198,0.1181,0.1047,0.097,0.0718,0.0868,0.0464,0.0409,0.0325,0.0054,0.0049,-0.006,-0.0056,-0.0053,-0.0002,0,0,0,0,0]}]]